2025-274C (66652 NORAD) Tracking and Keplerian Element Data

This shows tracking and keplerian element data for the satellite.

Feedback or suggestion? Click here.




ElementValue
Catalog66652
Name2025-274C
Epoch Orbit349
Epoch Day354.06059894
Epoch Year2025
RAAN281.1219
Inclination97.7401
Eccentricity0.0010576
Argument of Perigee230.082
Mean Anonmoly129.947
Mean Motion14.91938384
Decay Rate1.731E-05
L11 66652U 25274C 25354.06059894 .00001731 00000+0 17640-3 0 9997
L22 66652 97.7401 281.1219 0010576 230.0820 129.9470 14.91938384 3491



Live tracking and technical data element details for 2025-274C (NORAD 66652). 2025-274C can be tracked NOW for your location showing map with azimuth and elevation plus other details from your city location.







IsCatalogInMostPopularTable: catalog: 66652, numindb: 14
Update: records affected: 1



GetName: 66652 2025-274C

Hit Count: updated at: Mon, 20 Apr 2026 09:10:39 GMT